| time (UTC) | temp C | wind direction | speed KPH | gust KPH | rain 1hr cm | rain 24hr cm | rain mn cm | humidity % | barometer mb |
| 20260506152541 | 26 | 0.0 | 0.0 | 0.00 | 0.00 | 0.00 | 46 | 1020.5 | |
| 20260506151521 | 27 | 0.0 | 0.0 | 0.00 | 0.00 | 0.00 | 42 | 1018.9 | |
| 20260506150521 | 27 | 0.0 | 0.0 | 0.00 | 0.00 | 0.00 | 45 | 1019.4 | |
| 20260506145521 | 27 | 0.0 | 0.0 | 0.00 | 0.00 | 0.00 | 43 | 1019.0 | |
| 20260506144551 | 27 | 0.0 | 0.0 | 0.00 | 0.00 | 0.00 | 44 | 1018.8 | |
| 20260506143521 | 27 | 0.0 | 0.0 | 0.00 | 0.00 | 0.00 | 42 | 1019.4 | |
| 20260506142521 | 27 | 0.0 | 0.0 | 0.00 | 0.00 | 0.00 | 41 | 1019.6 | |
| 20260506141521 | 27 | 0.0 | 0.0 | 0.00 | 0.00 | 0.00 | 43 | 1018.9 | |
| 20260506140536 | 27 | 0.0 | 0.0 | 0.00 | 0.00 | 0.00 | 42 | 1019.8 | |
| 20260506135551 | 27 | 0.0 | 0.0 | 0.00 | 0.00 | 0.00 | 41 | 1019.8 | |
| 20260506134522 | 27 | 0.0 | 0.0 | 0.00 | 0.00 | 0.00 | 42 | 1019.5 | |
| 20260506133521 | 28 | 0.0 | 0.0 | 0.00 | 0.00 | 0.00 | 41 | 1018.5 | |
| 20260506132552 | 27 | 0.0 | 0.0 | 0.00 | 0.00 | 0.00 | 42 | 1019.2 | |
| 20260506131521 | 27 | 0.0 | 0.0 | 0.00 | 0.00 | 0.00 | 42 | 1020.3 | |
| 20260506130521 | 27 | 0.0 | 0.0 | 0.00 | 0.00 | 0.00 | 43 | 1019.5 | |
| 20260506125521 | 27 | 0.0 | 0.0 | 0.00 | 0.00 | 0.00 | 41 | 1019.8 | |
| 20260506124536 | 27 | 0.0 | 0.0 | 0.00 | 0.00 | 0.00 | 43 | 1019.7 | |
| 20260506123536 | 27 | 0.0 | 0.0 | 0.00 | 0.00 | 0.00 | 41 | 1020.3 | |
| 20260506122536 | 27 | 0.0 | 0.0 | 0.00 | 0.00 | 0.00 | 39 | 1019.6 | |
| 20260506121521 | 27 | 0.0 | 0.0 | 0.00 | 0.00 | 0.00 | 39 | 1021.4 | |
| 20260506120521 | 28 | 0.0 | 0.0 | 0.00 | 0.00 | 0.00 | 41 | 1020.1 | |
| 20260506115536 | 28 | 0.0 | 0.0 | 0.00 | 0.00 | 0.00 | 40 | 1021.6 | |
| 20260506114521 | 28 | 0.0 | 0.0 | 0.00 | 0.00 | 0.00 | 40 | 1018.5 | |
| 20260506113521 | 27 | 0.0 | 0.0 | 0.00 | 0.00 | 0.00 | 43 | 1020.9 | |
| 20260506112521 | 27 | 0.0 | 0.0 | 0.00 | 0.00 | 0.00 | 42 | 1021.7 | |
| 20260506111521 | 28 | 0.0 | 0.0 | 0.00 | 0.00 | 0.00 | 44 | 1019.9 | |
| 20260506110521 | 27 | 0.0 | 0.0 | 0.00 | 0.00 | 0.00 | 42 | 1020.6 | |
| 20260506105521 | 27 | 0.0 | 0.0 | 0.00 | 0.00 | 0.00 | 42 | 1020.0 | |
| 20260506104520 | 27 | 0.0 | 0.0 | 0.00 | 0.00 | 0.00 | 39 | 1021.2 | |
| 20260506103521 | 27 | 0.0 | 0.0 | 0.00 | 0.00 | 0.00 | 43 | 1020.7 | |
| 20260506102536 | 27 | 0.0 | 0.0 | 0.00 | 0.00 | 0.00 | 41 | 1021.5 | |
| 20260506101521 | 27 | 0.0 | 0.0 | 0.00 | 0.00 | 0.00 | 44 | 1020.9 | |
| 20260506100520 | 27 | 0.0 | 0.0 | 0.00 | 0.00 | 0.00 | 42 | 1019.9 | |
| 20260506095520 | 26 | 0.0 | 0.0 | 0.00 | 0.00 | 0.00 | 44 | 1021.8 | |
| 20260506094536 | 26 | 0.0 | 0.0 | 0.00 | 0.00 | 0.00 | 45 | 1021.1 | |
| 20260506093521 | 26 | 0.0 | 0.0 | 0.00 | 0.00 | 0.00 | 46 | 1020.6 | |
| 20260506092520 | 25 | 0.0 | 0.0 | 0.00 | 0.00 | 0.00 | 47 | 1022.1 | |
| 20260506091520 | 26 | 0.0 | 0.0 | 0.00 | 0.00 | 0.00 | 45 | 1021.1 | |
| 20260506090521 | 25 | 0.0 | 0.0 | 0.00 | 0.00 | 0.00 | 47 | 1021.1 | |
| 20260506085520 | 25 | 0.0 | 0.0 | 0.00 | 0.00 | 0.00 | 49 | 1022.0 | |
| 20260506084522 | 25 | 0.0 | 0.0 | 0.00 | 0.00 | 0.00 | 47 | 1020.6 | |
| 20260506083520 | 24 | 0.0 | 0.0 | 0.00 | 0.00 | 0.00 | 48 | 1022.3 | |
| 20260506082520 | 24 | 0.0 | 0.0 | 0.00 | 0.00 | 0.00 | 50 | 1020.9 | |
| 20260506081521 | 23 | 0.0 | 0.0 | 0.00 | 0.00 | 0.00 | 53 | 1020.3 | |
| 20260506080520 | 22 | 0.0 | 0.0 | 0.00 | 0.00 | 0.00 | 55 | 1022.5 | |
| 20260506073520 | 22 | 0.0 | 0.0 | 0.00 | 0.00 | 0.00 | 58 | 1020.6 | |
| 20260506072521 | 21 | 0.0 | 0.0 | 0.00 | 0.00 | 0.00 | 59 | 1022.4 | |
| 20260506071521 | 21 | 0.0 | 0.0 | 0.00 | 0.00 | 0.00 | 61 | 1021.1 | |
| 20260506070521 | 20 | 0.0 | 0.0 | 0.00 | 0.00 | 0.00 | 63 | 1022.7 | |
| 20260506061521 | 20 | 0.0 | 0.0 | 0.00 | 0.00 | 0.00 | 63 | 1021.6 | |
| 20260506060536 | 20 | 0.0 | 0.0 | 0.00 | 0.00 | 0.00 | 65 | 1021.7 | |
| 20260506050535 | 17 | 0.0 | 0.0 | 0.00 | 0.00 | 0.00 | 79 | 1021.0 | |
| 20260506044521 | 15 | 0.0 | 0.0 | 0.00 | 0.00 | 0.00 | 84 | 1022.3 | |
| 20260506043551 | 15 | 0.0 | 0.0 | 0.00 | 0.00 | 0.00 | 87 | 1021.2 | |
| 20260506042520 | 15 | 0.0 | 0.0 | 0.00 | 0.00 | 0.00 | 87 | 1022.4 | |
| 20260506041521 | 15 | 0.0 | 0.0 | 0.00 | 0.00 | 0.00 | 80 | 1022.1 | |
| 20260506040520 | 15 | 0.0 | 0.0 | 0.00 | 0.00 | 0.00 | 86 | 1021.4 | |
| 20260506035520 | 15 | 0.0 | 0.0 | 0.00 | 0.00 | 0.00 | 87 | 1021.6 | |
| 20260506034521 | 14 | 0.0 | 0.0 | 0.00 | 0.00 | 0.00 | 87 | 1022.5 | |
| 20260506033520 | 15 | 0.0 | 0.0 | 0.00 | 0.00 | 0.00 | 87 | 1021.9 | |
| 20260506032520 | 15 | 0.0 | 0.0 | 0.00 | 0.00 | 0.00 | 88 | 1021.6 | |
| 20260506031520 | 14 | 0.0 | 0.0 | 0.00 | 0.00 | 0.00 | 88 | 1022.3 | |
| 20260506030520 | 15 | 0.0 | 0.0 | 0.00 | 0.00 | 0.00 | 87 | 1022.0 | |
| 20260506025520 | 15 | 0.0 | 0.0 | 0.00 | 0.00 | 0.00 | 83 | 1022.2 | |
| 20260506024520 | 15 | 0.0 | 0.0 | 0.00 | 0.00 | 0.00 | 82 | 1022.1 | |
| 20260506023520 | 15 | 0.0 | 0.0 | 0.00 | 0.00 | 0.00 | 80 | 1021.4 | |
| 20260506022520 | 15 | 0.0 | 0.0 | 0.00 | 0.00 | 0.00 | 76 | 1021.9 | |
| 20260506021520 | 15 | 0.0 | 0.0 | 0.00 | 0.00 | 0.00 | 79 | 1021.5 | |
| 20260506020520 | 15 | 0.0 | 0.0 | 0.00 | 0.00 | 0.00 | 82 | 1022.2 | |
| 20260506015536 | 15 | 0.0 | 0.0 | 0.00 | 0.00 | 0.00 | 78 | 1021.8 | |
| 20260506014520 | 15 | 0.0 | 0.0 | 0.00 | 0.00 | 0.00 | 77 | 1021.8 | |
| 20260506013520 | 16 | 0.0 | 0.0 | 0.00 | 0.00 | 0.00 | 78 | 1021.8 | |
| 20260506012520 | 16 | 0.0 | 0.0 | 0.00 | 0.00 | 0.00 | 77 | 1021.7 | |
| 20260506011520 | 16 | 0.0 | 0.0 | 0.00 | 0.00 | 0.00 | 77 | 1021.6 | |
| 20260506010520 | 15 | 0.0 | 0.0 | 0.00 | 0.00 | 0.00 | 79 | 1021.7 | |
| 20260506005520 | 16 | 0.0 | 0.0 | 0.00 | 0.00 | 0.00 | 81 | 1022.1 | |
| 20260506004520 | 16 | 0.0 | 0.0 | 0.00 | 0.00 | 0.00 | 76 | 1021.5 | |
| 20260506003520 | 16 | 0.0 | 0.0 | 0.00 | 0.00 | 0.00 | 77 | 1021.6 | |
| 20260506002520 | 16 | 0.0 | 0.0 | 0.00 | 0.00 | 0.00 | 76 | 1021.4 | |
| 20260506001520 | 16 | 0.0 | 0.0 | 0.00 | 0.00 | 0.00 | 79 | 1021.3 | |
| 20260506000520 | 16 | 0.0 | 0.0 | 0.00 | 0.00 | 0.00 | 76 | 1021.6 | |
| 20260505235520 | 16 | 0.0 | 0.0 | 0.00 | 0.00 | 0.00 | 74 | 1021.6 | |
| 20260505234520 | 16 | 0.0 | 0.0 | 0.00 | 0.00 | 0.00 | 83 | 1021.8 | |
| 20260505233520 | 16 | 0.0 | 0.0 | 0.00 | 0.00 | 0.00 | 80 | 1021.4 | |
| 20260505232520 | 16 | 0.0 | 0.0 | 0.00 | 0.00 | 0.00 | 75 | 1021.3 | |
| 20260505231520 | 16 | 0.0 | 0.0 | 0.00 | 0.00 | 0.00 | 81 | 1021.7 | |
| 20260505230520 | 16 | 0.0 | 0.0 | 0.00 | 0.00 | 0.00 | 81 | 1021.7 | |
| 20260505225520 | 16 | 0.0 | 0.0 | 0.00 | 0.00 | 0.00 | 83 | 1021.7 | |
| 20260505224520 | 16 | 0.0 | 0.0 | 0.00 | 0.00 | 0.00 | 78 | 1021.6 | |
| 20260505223535 | 16 | 0.0 | 0.0 | 0.00 | 0.00 | 0.00 | 81 | 1022.0 | |
| 20260505222520 | 16 | 0.0 | 0.0 | 0.00 | 0.00 | 0.00 | 78 | 1021.9 | |
| 20260505221520 | 16 | 0.0 | 0.0 | 0.00 | 0.00 | 0.00 | 80 | 1022.0 | |
| 20260505220535 | 16 | 0.0 | 0.0 | 0.00 | 0.00 | 0.00 | 79 | 1022.2 | |
| 20260505215519 | 17 | 0.0 | 0.0 | 0.00 | 0.00 | 0.00 | 76 | 1022.1 | |
| 20260505214519 | 17 | 0.0 | 0.0 | 0.00 | 0.00 | 0.00 | 78 | 1021.6 | |
| 20260505213520 | 17 | 0.0 | 0.0 | 0.00 | 0.00 | 0.00 | 73 | 1022.3 | |
| 20260505212519 | 17 | 0.0 | 0.0 | 0.00 | 0.00 | 0.00 | 72 | 1021.7 | |
| 20260505211535 | 17 | 0.0 | 0.0 | 0.00 | 0.00 | 0.00 | 70 | 1022.1 | |
| 20260505210519 | 17 | 0.0 | 0.0 | 0.00 | 0.00 | 0.00 | 69 | 1021.8 | |
| 20260505205520 | 17 | 0.0 | 0.0 | 0.00 | 0.00 | 0.00 | 68 | 1021.9 | |
| 20260505204522 | 18 | 0.0 | 0.0 | 0.00 | 0.00 | 0.00 | 66 | 1021.2 | |
| 20260505203535 | 17 | 0.0 | 0.0 | 0.00 | 0.00 | 0.00 | 66 | 1022.7 | |
| 20260505202519 | 18 | 0.0 | 0.0 | 0.00 | 0.00 | 0.00 | 64 | 1021.9 | |
| 20260505201550 | 18 | 0.0 | 0.0 | 0.00 | 0.00 | 0.00 | 59 | 1021.5 | |
| 20260505200520 | 18 | 0.0 | 0.0 | 0.00 | 0.00 | 0.00 | 59 | 1021.5 | |
| 20260505195519 | 18 | 0.0 | 0.0 | 0.00 | 0.00 | 0.00 | 63 | 1021.7 | |
| 20260505194519 | 18 | 0.0 | 0.0 | 0.00 | 0.00 | 0.00 | 61 | 1021.3 | |
| 20260505193520 | 19 | 0.0 | 0.0 | 0.00 | 0.00 | 0.00 | 61 | 1021.4 | |
| 20260505192514 | 19 | 0.0 | 0.0 | 0.00 | 0.00 | 0.00 | 60 | 1021.2 | |
| 20260505191520 | 19 | 0.0 | 0.0 | 0.00 | 0.00 | 0.00 | 62 | 1021.3 | |
| 20260505190520 | 19 | 0.0 | 0.0 | 0.00 | 0.00 | 0.00 | 59 | 1020.9 | |
| 20260505185522 | 19 | 0.0 | 0.0 | 0.00 | 0.00 | 0.00 | 60 | 1021.5 | |
| 20260505184521 | 20 | 0.0 | 0.0 | 0.00 | 0.00 | 0.00 | 56 | 1020.8 | |
| 20260505183535 | 20 | 0.0 | 0.0 | 0.00 | 0.00 | 0.00 | 56 | 1021.1 | |
| 20260505182519 | 20 | 0.0 | 0.0 | 0.00 | 0.00 | 0.00 | 55 | 1020.9 | |
| 20260505181519 | 20 | 0.0 | 0.0 | 0.00 | 0.00 | 0.00 | 57 | 1020.9 | |
| 20260505180519 | 21 | 0.0 | 0.0 | 0.00 | 0.00 | 0.00 | 56 | 1020.8 | |
| 20260505175520 | 21 | 0.0 | 0.0 | 0.00 | 0.00 | 0.00 | 53 | 1020.4 | |
| 20260505174520 | 21 | 0.0 | 0.0 | 0.00 | 0.00 | 0.00 | 51 | 1020.7 | |
| 20260505173535 | 21 | 0.0 | 0.0 | 0.00 | 0.00 | 0.00 | 48 | 1020.5 | |
| 20260505172520 | 22 | 0.0 | 0.0 | 0.00 | 0.00 | 0.00 | 49 | 1020.1 | |
| 20260505171534 | 22 | 0.0 | 0.0 | 0.00 | 0.00 | 0.00 | 52 | 1020.1 | |
| 20260505170535 | 22 | 0.0 | 0.0 | 0.00 | 0.00 | 0.00 | 51 | 1021.0 | |
| 20260505165550 | 22 | 0.0 | 0.0 | 0.00 | 0.00 | 0.00 | 48 | 1019.8 | |
| 20260505164519 | 22 | 0.0 | 0.0 | 0.00 | 0.00 | 0.00 | 48 | 1021.0 | |
| 20260505163522 | 23 | 0.0 | 0.0 | 0.00 | 0.00 | 0.00 | 45 | 1020.2 | |
| 20260505162520 | 23 | 0.0 | 0.0 | 0.00 | 0.00 | 0.00 | 48 | 1020.6 | |
| 20260505161520 | 24 | 0.0 | 0.0 | 0.00 | 0.00 | 0.00 | 41 | 1019.9 | |
| 20260505160535 | 24 | 0.0 | 0.0 | 0.00 | 0.00 | 0.00 | 41 | 1020.0 |